Torna al catalogo

SL-8 DEB

AttivoLEO
NORAD 27746·DEBRIS·🇷🇺 Russia

Lanciato Feb 12, 1991 da Plesetsk Cosmodrome

Loading…

Prossimi Passaggi (prossime 24 ore)

TLE

In scadenzaSource: Space-Track

Epoca: Sep 8, 2026, 05:04 UTC

1 27746U 91009DB  26251.21131653  .00000054  00000-0  68011-3 0  9991
2 27746  74.1074 332.2450 0176446 305.3836  80.4400 12.14606258583845

Traccia SL-8 DEB in tempo reale con AllMySat

Download on the App Store